Home > Weather > Finland > Lahti > Past weeks

Flag for Finland Weather past 2 weeks in Lahti, Finland

34 °F

Partly sunny.

Feels Like: 26 °F
Forecast: 25 / 35 °F
Wind: 9 mph from West

Location: Utti

Current Time: Dec 1, 2015 at 3:38:47 PM

Latest Report: Dec 1, 2015 at 2:50 PM

Visibility: N/A

Pressure: 29.15 "Hg

Humidity: 93%

Dew point: 32 °F

Location of LahtiLocation

Historic Weather in Lahti — Graph


Lahti temperature yesterday

Maximum temperature yesterday: 39 °F (at 5:20 PM)
Minimum temperature yesterday: 34 °F (at 1:50 AM)
Average temperature yesterday: 37 °F

Past Weeks' High & Low Weather Summary

High46 °F (Nov 28, 12:20 AM)100% (Nov 16, 2:20 PM)29.92 "Hg (Nov 16, 2:20 PM)
Low18 °F (Nov 24, 5:50 AM)75% (Nov 28, 5:20 PM)28.97 "Hg (Nov 30, 3:20 PM)
Average35 °F96%29.46 "Hg
* Reported Nov 16 2:20 PM — Dec 1 2:20 PM, Lahti, Weather by CustomWeather, © 2015

Note: Actual official high and low records may vary slightly from our data, if they occured in-between our weather recording intervals... More about our weather records


Lahti weather history for previous 24 hours

Time TempWeatherWind HumidityBarometerVisibility
2:20 PM
Tue, Dec 1
34 °FPartly sunny.10 mph93%29.12 "HgN/A
1:50 PM34 °FPartly sunny.7 mph93%29.12 "HgN/A
1:20 PM34 °FPartly sunny.8 mph100%29.09 "HgN/A
12:50 PM34 °FPartly sunny.6 mph100%29.09 "HgN/A
12:20 PM34 °FPartly sunny.6 mph100%29.09 "HgN/A
11:50 AM34 °FLight rain. Broken clouds.7 mph100%29.06 "HgN/A
11:20 AM34 °FLight rain. Broken clouds.7 mph100%29.06 "HgN/A
10:50 AM34 °FLight rain. Partly sunny.7 mph100%29.06 "HgN/A
9:50 AM34 °FLight rain. Broken clouds.7 mph100%29.06 "HgN/A
8:50 AM34 °FLight rain. Partly cloudy.6 mph100%29.03 "HgN/A
8:20 AM34 °FLight rain. Partly cloudy.5 mph100%29.03 "HgN/A
7:50 AM34 °FLight rain. Passing clouds.6 mph100%29.03 "HgN/A
7:20 AM34 °FMostly cloudy.7 mph100%29.00 "HgN/A
6:50 AM34 °FLight rain. Passing clouds.8 mph100%29.00 "HgN/A
5:50 AM34 °FLight rain. Low clouds.9 mph100%29.00 "Hg4 mi
5:20 AM34 °FLight rain. Low clouds.8 mph100%29.00 "HgN/A
4:50 AM34 °FSleet. Low clouds.9 mph100%29.00 "HgN/A
4:20 AM34 °FLight rain. Low clouds.9 mph100%29.00 "HgN/A
3:50 AM34 °FSleet. Low clouds.9 mph100%28.97 "HgN/A
3:20 AM34 °FSleet. Low clouds.10 mph100%28.97 "Hg4 mi
2:50 AM34 °FLight rain. Low clouds.12 mph100%28.97 "HgN/A
1:50 AM36 °FSprinkles. Overcast.13 mph93%28.97 "HgN/A
1:20 AM36 °FLight rain. Overcast.12 mph93%28.97 "HgN/A
12:20 AM36 °FOvercast.10 mph93%28.97 "HgN/A
11:50 PM
Mon, Nov 30
37 °FOvercast.10 mph87%28.97 "HgN/A
11:20 PM37 °FMostly cloudy.9 mph93%28.97 "HgN/A
10:50 PM37 °FPassing clouds.10 mph87%28.97 "HgN/A
10:20 PM37 °FPassing clouds.12 mph87%28.97 "HgN/A
9:50 PM37 °FSprinkles. Mostly cloudy.16 mph87%28.97 "HgN/A
9:20 PM37 °FPassing clouds.16 mph87%28.97 "HgN/A
8:50 PM37 °FSprinkles. Passing clouds.14 mph93%28.97 "HgN/A
8:20 PM37 °FPassing clouds.17 mph93%28.97 "HgN/A
7:50 PM37 °FSprinkles. Overcast.16 mph93%28.97 "HgN/A
7:20 PM37 °FSprinkles. Overcast.15 mph93%28.97 "HgN/A
6:50 PM39 °FSprinkles. Overcast.18 mph87%28.97 "HgN/A
6:20 PM37 °FSprinkles. Overcast.17 mph93%28.97 "HgN/A
5:50 PM39 °FLight rain. Overcast.18 mph87%28.97 "HgN/A
5:20 PM39 °FLight rain. Overcast.18 mph87%28.97 "HgN/A
4:50 PM37 °FSprinkles. Overcast.21 mph93%28.97 "HgN/A
4:20 PM37 °FLight rain. Overcast.22 mph93%28.97 "HgN/A
3:50 PM37 °FLight rain. Passing clouds.20 mph93%28.97 "HgN/A
3:20 PM37 °FLight rain. Passing clouds.24 mph93%28.97 "HgN/A
Weather by CustomWeather, © 2015

See weather overviewHow to use our weather pages